User: anonymous   Login
Location: Unspecified
(0.0000°N, 0.0000°E)
Time: 02:50:13
(UTC+00:00)
Language:

COSMOS 2508 - Orbit

View from above orbital plane
View from above orbital plane
View from above satellite
View from above satellite

Ground track
Ground track

The orbit data is extracted from the following two-line orbital elements,

1 40921U 15050B   19111.76969509  .00000044  00000-0  24617-3 0  9992
2 40921  82.4835 266.1177 0013198 323.0818  36.9343 12.42888341162216
Epoch (UTC): 21 April 2019 18:28:21
Eccentricity: 0.0013198
inclination: 82.4835°
perigee height: 1484 km
apogee height: 1505 km
right ascension of ascending node: 266.1177°
argument of perigee: 323.0818°
revolutions per day: 12.42888341
mean anomaly at epoch: 36.9343°
orbit number at epoch: 16221

The dashed part of the orbit path shows where the satellite is in the earth's shadow,  

DLR